TimeEDT,TemperatureF,Dew PointF,Humidity,Sea Level PressureIn,VisibilityMPH,Wind Direction,Wind SpeedMPH,Gust SpeedMPH,PrecipitationIn,Events,Conditions,WindDirDegrees,DateUTC
12:53 AM,39.0,33.1,79,30.36,10.0,Calm,Calm,-,N/A,,Clear,0,2013-05-04 04:53:00
1:53 AM,37.9,33.1,83,30.34,10.0,Calm,Calm,-,N/A,,Clear,0,2013-05-04 05:53:00
2:53 AM,37.0,33.1,86,30.32,10.0,Calm,Calm,-,N/A,,Clear,0,2013-05-04 06:53:00
3:53 AM,35.1,32.0,89,30.31,10.0,Calm,Calm,-,N/A,,Clear,0,2013-05-04 07:53:00
4:53 AM,37.0,33.1,86,30.30,10.0,Calm,Calm,-,N/A,,Clear,0,2013-05-04 08:53:00
5:53 AM,37.0,33.1,86,30.31,10.0,NE,3.5,-,N/A,,Clear,50,2013-05-04 09:53:00
6:53 AM,46.0,37.9,73,30.31,10.0,ENE,4.6,-,N/A,,Clear,70,2013-05-04 10:53:00
7:53 AM,51.1,37.0,59,30.32,10.0,ENE,8.1,-,N/A,,Clear,70,2013-05-04 11:53:00
8:31 AM,53.6,35.6,51,30.30,10.0,ESE,10.4,-,N/A,,Partly Cloudy,110,2013-05-04 12:31:00
8:53 AM,54.0,35.1,49,30.32,10.0,East,9.2,-,N/A,,Clear,100,2013-05-04 12:53:00
9:53 AM,57.0,34.0,42,30.32,10.0,ESE,8.1,-,N/A,,Clear,120,2013-05-04 13:53:00
10:53 AM,59.0,33.1,38,30.32,10.0,ESE,6.9,19.6,N/A,,Clear,110,2013-05-04 14:53:00
11:53 AM,61.0,35.1,38,30.30,10.0,SE,8.1,-,N/A,,Clear,130,2013-05-04 15:53:00
12:53 PM,64.0,37.9,38,30.29,10.0,SE,9.2,16.1,N/A,,Clear,130,2013-05-04 16:53:00
1:53 PM,64.0,37.0,37,30.27,10.0,Variable,5.8,-,N/A,,Clear,0,2013-05-04 17:53:00
2:53 PM,66.0,36.0,33,30.25,10.0,ESE,8.1,16.1,N/A,,Clear,120,2013-05-04 18:53:00
3:53 PM,66.9,36.0,32,30.24,10.0,North,5.8,-,N/A,,Clear,360,2013-05-04 19:53:00
4:53 PM,66.9,35.1,31,30.22,10.0,Variable,5.8,16.1,N/A,,Clear,0,2013-05-04 20:53:00
5:53 PM,66.9,35.1,31,30.21,10.0,SSE,9.2,-,N/A,,Clear,160,2013-05-04 21:53:00
6:53 PM,64.9,36.0,34,30.20,10.0,SSE,11.5,-,N/A,,Clear,160,2013-05-04 22:53:00
7:53 PM,60.1,36.0,41,30.21,10.0,SSE,5.8,-,N/A,,Clear,160,2013-05-04 23:53:00
8:53 PM,55.9,39.0,53,30.23,10.0,SE,10.4,-,N/A,,Clear,130,2013-05-05 00:53:00
9:53 PM,53.1,39.0,59,30.25,10.0,ESE,3.5,-,N/A,,Clear,120,2013-05-05 01:53:00
10:53 PM,48.9,39.0,69,30.26,10.0,SE,8.1,-,N/A,,Clear,130,2013-05-05 02:53:00
11:53 PM,46.0,39.0,76,30.26,10.0,ESE,4.6,-,N/A,,Clear,120,2013-05-05 03:53:00